Presure
275 252 245 255 260 261 255 248 242 234 234 235 230 248 235 252 243 245 278 267 272 286 316 235 330 340 365 384 370 361 347 350 355 358 306 156 218 275 188 281 199 193 261 256
262 261 258 254 249 240 235 231 226 223 227 243 222 246 240 226 245 269 272 248 271 269 290 291 305 307 318 333 421 420 415 374 352 348 348 344 343 329 311 234 156 152 280 246
240 242 237 235 224 223 224 241 240 239 245 216 240 228 212 242 235 277 255 235 233 274 265 266 275 276 279 301 305 337 365 422 423 432 414 364 360 346 339 196 307 278 239 239
229 225 220 228 243 240 238 228 218 228 232 239 212 222 234 235 236 264 245 233 224 242 306 283 269 268 260 285 282 290 299 295 310 320 312 287 273 255 247 244 238 236 231 227
253 252 256 244 218 225 224 224 230 229 234 209 214 220 232 235 229 255 248 235 227 224 234 283 280 275 272 277 274 268 278 256 251 251 230 230 239 225 235 232 217 228 213 194
253 212 209 210 213 220 233 226 232 213 214 218 219 224 251 243 238 251 257 241 229 213 222 222 257 218 241 237 258 246 243 232 238 194 196 226 216 161 221 238 215 224 224 222
213 221 210 216 237 244 235 237 213 220 207 207 213 249 242 311 240 252 246 251 236 224 217 222 227 231 231 231 253 214 242 232 217 230 206 228 222 251 218 214 205 238 233 217
227 217 223 248 241 233 243 214 208 229 213 210 225 249 235 280 254 239 251 241 249 243 237 227 219 231 226 229 233 227 224 238 229 227 217 225 219 227 206 233 201 215 228 216
219 202 239 219 241 234 221 199 211 222 211 230 226 251 231 261 293 232 243 245 242 232 233 232 257 233 232 229 236 235 239 227 227 232 234 226 225 240 209 236 226 244 212 213
219 211 238 218 242 212 228 197 220 220 219 209 228 249 225 245 278 239 242 243 258 233 239 243 231 244 257 249 246 243 242 245 229 235 227 236 225 225 229 224 222 220 227 226
220 212 228 221 217 200 215 244 209 209 218 220 241 238 229 251 268 255 236 241 243 258 263 256 253 250 231 230 229 227 236 237 235 235 236 236 239 243 206 203 198 197 203 205
227 214 213 234 235 200 220 209 216 220 220 212 244 232 230 232 270 284 269 226 234 234 233 231 225 214 218 216 207 210 212 211 212 215 208 198 195 204 215 211 206 207 224 240
229 219 218 214 238 236 238 231 232 217 221 247 235 222 232 240 281 287 244 241 231 224 229 228 237 235 230 227 226 225 221 220 217 201 202 203 204 234 245 248 244 234 219 206
226 220 207 209 217 238 237 240 238 209 237 242 245 231 238 249 289 294 286 248 238 237 235 231 222 220 222 222 205 204 209 210 220 219 246 237 233 229 218 216 215 212 213 216
226 228 204 208 211 221 224 199 194 236 243 254 247 227 254 275 301 285 283 238 190 228 202 231 225 221 204 204 201 201 221 222 247 240 234 228 225 222 222 223 223 223 210 175
233 240 212 202 209 212 214 224 201 180 242 251 214 235 267 224 193 185 263 253 227 210 245 220 211 204 199 210 200 218 214 223 226 222 219 221 222 224 259 262 254 251 186 240
239 244 213 209 211 205 214 194 216 234 238 255 227 247 270 198 194 213 192 255 200 210 217 210 210 220 217 201 211 221 220 218 221 221 217 217 215 221 239 238 238 192 243 213
235 247 219 205 211 212 210 221 232 234 242 252 242 230 200 184 220 262 252 237 203 212 212 201 206 212 200 209 214 217 222 222 218 219 218 218 220 233 234 242 241 172 228 219
223 245 213 211 210 214 208 216 228 235 244 248 223 256 277 202 184 211 209 220 221 214 194 202 215 202 209 206 215 217 216 224 223 221 223 223 219 222 234 238 198 220 233 228
223 225 225 217 221 216 207 221 225 229 247 252 224 213 263 256 188 190 229 209 202 202 207 201 210 200 207 206 214 222 223 219 217 223 226 229 233 225 233 192 180 164 223 233
225 215 224 223 225 221 211 221 224 214 244 277 222 258 209 252 220 244 230 213 208 202 202 200 204 205 204 212 216 223 222 223 220 224 227 227 229 232 144 172 175 226 246 246
225 230 221 223 225 222 222 225 213 224 246 251 242 240 207 200 196 219 221 203 205 210 210 207 204 209 219 217 216 223 222 225 221 225 223 224 192 143 198 199 235 227 255 272
235 226 228 228 218 213 223 223 227 218 243 248 245 223 202 231 209 205 203 203 203 209 208 206 213 213 213 218 221 220 227 224 224 226 225 169 191 226 203 225 245 257 272 279
248 238 232 232 230 226 224 222 227 222 251 246 240 226 202 211 207 202 203 206 206 208 212 214 214 214 224 223 220 228 227 226 227 216 226 199 213 226 176 246 257 276 286 297
268 257 253 250 241 234 234 228 213 237 228 253 242 241 218 206 215 215 207 208 207 208 206 207 218 222 226 228 227 225 225 216 224 227 224 217 230 237 243 244 276 290 204 295
266 164 266 258 253 251 248 248 249 247 237 240 237 237 236 235 222 217 208 207 208 216 220 219 220 224 228 215 218 224 227 228 220 218 226 229 236 241 255 285 297 293 294 304
268 265 264 261 226 253 252 248 246 227 249 254 245 235 241 236 229 229 224 222 222 221 217 216 215 221 216 220 221 221 219 223 228 219 232 236 245 253 288 281 262 296 300 309
Wind_Speed
36 37 34 31 33 32 28 31 32 39 42 45 45 44 46 44 46 48 37 37 44 41 25 39 31 31 23 24 36 41 44 50 56 61 83 52 65 77 51 64 42 49 70 67
28 28 27 30 29 28 31 31 35 39 40 36 38 37 36 35 38 31 27 30 36 38 39 29 35 41 36 30 17 26 41 54 56 50 49 53 57 61 49 44 42 39 55 53
27 26 26 25 28 30 30 33 35 33 30 32 27 26 28 30 32 20 21 25 26 24 25 12 14 25 29 42 49 39 21 11 16 26 27 32 36 41 40 35 36 36 37 40
25 24 23 25 29 30 32 26 26 24 23 23 22 24 32 26 28 16 17 19 22 25 18 11 10 13 15 32 33 39 41 46 41 32 37 37 28 24 21 22 27 31 35 32
31 28 29 28 20 24 24 25 23 21 21 16 17 25 26 23 25 13 13 17 15 23 22 23 27 29 32 33 35 32 35 31 36 34 27 29 21 26 22 28 31 33 46 37
30 20 17 16 19 22 27 21 20 12 13 11 16 26 26 20 19 12 11 15 14 10 18 22 14 13 12 12 27 29 26 20 23 14 21 20 25 34 29 22 43 37 38 46
18 18 19 19 24 29 24 23 12 14 13 13 14 25 22 17 17 11 8 10 13 15 13 16 19 16 13 9 17 12 16 11 12 18 21 19 22 24 28 26 27 42 44 35
22 19 20 25 24 20 24 13 14 15 10 11 18 21 18 22 16 16 8 6 7 6 10 15 14 18 15 14 9 7 5 1 4 6 10 12 14 18 20 27 28 33 32 37
20 21 18 17 24 21 20 22 12 15 9 19 18 19 16 21 21 15 12 8 5 7 5 7 11 12 13 9 9 7 4 6 7 10 13 13 16 28 24 30 29 44 36 41
20 19 22 18 23 27 19 22 15 13 12 11 19 21 16 16 27 14 12 10 11 9 9 6 5 9 13 9 8 8 9 11 11 14 15 21 21 23 29 29 33 36 42 47
26 23 25 25 24 25 22 27 19 17 13 17 22 17 13 19 25 16 12 11 8 8 10 10 8 5 7 7 8 10 9 10 13 18 21 25 29 32 27 30 34 38 42 46
29 26 26 29 29 26 19 24 18 19 18 16 26 18 14 15 25 22 14 15 12 8 6 4 6 9 8 9 12 12 14 16 18 20 23 26 29 32 35 38 41 44 48 51
31 31 26 19 25 26 28 28 28 24 21 28 23 17 17 17 31 21 14 15 16 13 12 11 10 9 10 11 13 14 17 19 22 26 29 33 36 36 35 36 38 39 43 45
35 35 23 22 25 27 28 29 27 21 29 28 26 18 21 24 32 20 15 18 16 16 14 14 14 14 15 16 19 23 25 28 31 33 30 31 34 35 37 39 42 43 47 51
39 38 28 28 28 26 27 31 25 27 28 29 26 19 28 34 30 18 14 18 21 16 18 16 16 17 20 22 25 29 29 30 29 29 31 33 36 40 43 45 48 50 48 46
41 41 36 32 31 30 29 29 31 24 27 29 24 21 32 21 21 21 16 19 17 21 16 18 21 24 26 25 29 29 32 32 31 32 34 36 40 43 43 45 49 52 46 58
41 41 39 37 37 35 33 37 30 30 28 30 27 23 31 24 26 22 25 16 25 22 20 22 24 23 25 29 31 32 33 35 36 36 38 41 42 46 45 46 49 48 55 58
41 42 43 38 40 39 35 35 34 31 28 27 28 25 29 28 25 22 21 20 26 25 24 26 27 26 31 32 34 36 36 38 40 42 43 46 48 49 49 50 51 45 55 62
46 43 45 44 43 42 38 37 33 31 28 26 33 28 25 30 32 28 27 25 25 26 31 30 28 32 33 36 36 38 39 40 42 45 46 48 49 50 51 52 47 55 62 67
49 47 47 50 47 47 39 39 36 31 30 29 34 33 26 27 35 34 29 28 30 31 31 33 33 35 35 39 41 41 42 44 45 48 50 52 54 52 54 47 50 48 63 71
51 50 49 49 47 46 44 41 36 34 33 31 38 29 37 29 34 32 32 30 31 34 36 37 37 38 40 42 43 43 45 48 49 51 53 54 56 58 38 53 53 62 81 84
54 54 53 53 49 49 47 41 37 35 34 34 34 33 40 41 41 35 34 35 36 38 38 39 42 43 42 44 46 48 49 52 52 54 55 56 48 37 59 55 76 69 92 90
60 57 56 55 51 48 49 44 45 39 38 37 34 41 45 36 37 39 38 39 39 39 40 43 44 46 47 48 50 51 53 54 56 58 59 41 50 62 57 70 87 94 91 91
66 63 60 59 58 55 52 47 48 45 44 41 39 46 43 44 42 41 40 41 42 43 44 46 48 50 50 50 53 55 55 57 59 55 63 55 58 69 49 88 94 91 88 83
55 61 63 63 63 60 59 55 45 50 48 46 43 43 48 47 44 43 43 44 45 45 47 49 52 53 53 53 55 55 57 56 61 64 65 62 75 84 88 84 92 85 60 81
52 29 56 59 60 59 59 58 55 52 51 51 47 47 47 48 50 47 45 48 48 50 52 51 53 53 53 51 55 58 62 64 62 64 72 76 84 88 95 87 79 79 79 81
55 57 58 58 48 59 59 58 57 47 53 51 53 52 53 53 53 51 49 51 53 54 54 54 53 54 52 57 58 60 61 66 72 67 81 85 89 93 79 78 82 78 79 80
Wind_Direction
213 215 217 224 226 229 226 229 232 244 250 255 266 269 277 294 298 294 295 301 310 311 335 296 24 21 359 278 267 256 249 244 239 239 248 264 260 254 265 259 270 272 241 248
196 201 202 208 213 216 224 231 240 250 259 265 274 283 291 300 299 300 303 311 322 320 324 331 52 47 44 26 267 251 250 245 243 237 234 236 234 244 243 257 276 276 231 243
198 198 204 208 217 228 235 233 240 247 254 268 278 284 283 302 304 317 309 314 315 330 325 5 55 62 51 63 59 60 78 174 198 213 218 223 229 232 227 257 215 215 227 238
202 204 211 218 216 221 228 242 256 262 275 280 271 296 306 310 312 325 307 313 317 334 16 27 69 33 48 68 78 73 75 82 81 98 112 113 116 134 161 185 203 216 224 238
204 209 203 204 226 233 246 246 254 263 274 263 285 304 310 313 309 314 308 302 316 323 343 62 67 66 67 60 70 89 89 116 118 120 165 166 162 186 182 198 221 219 234 268
205 201 212 228 243 249 237 249 251 224 251 286 313 301 309 312 305 310 322 288 304 316 330 334 20 342 119 123 96 119 120 144 124 280 265 169 210 249 219 203 240 236 242 247
206 212 217 233 231 222 235 238 213 247 236 263 290 324 313 322 305 300 313 319 292 304 315 327 331 340 335 339 107 285 124 156 241 168 248 220 246 178 256 272 277 232 246 275
213 218 223 222 225 239 238 205 223 268 244 260 318 324 314 338 293 299 285 293 297 307 315 308 318 322 327 328 352 344 344 79 254 260 289 250 256 258 278 266 280 266 273 275
222 216 232 238 229 241 222 229 228 273 255 308 317 321 311 335 331 306 300 275 262 282 274 285 287 295 286 304 319 344 305 307 304 293 279 280 285 248 275 251 280 261 285 288
226 229 230 229 230 235 233 227 258 272 286 267 308 313 305 317 337 287 290 291 259 257 267 250 252 275 269 274 277 270 268 275 280 262 274 269 279 282 279 281 282 284 283 284
228 224 233 235 231 221 244 248 240 245 276 291 299 302 295 314 327 302 290 285 282 264 259 260 274 269 276 271 275 293 289 292 288 284 279 280 279 278 286 285 285 287 289 292
231 234 238 243 251 230 250 244 248 265 272 267 294 288 289 295 319 314 271 287 290 289 285 262 273 307 302 298 295 293 292 292 289 288 290 291 290 290 289 292 293 295 295 294
230 238 241 239 256 253 253 258 262 257 266 282 283 272 287 296 316 307 276 261 278 288 290 292 290 286 281 282 286 291 293 296 297 292 292 292 292 295 294 295 297 297 296 296
230 234 230 237 254 249 247 252 254 253 271 279 283 272 288 297 313 294 274 256 265 272 280 285 289 295 298 304 302 304 305 304 303 300 299 299 299 299 296 295 294 294 294 294
231 229 231 238 245 253 257 250 257 264 276 281 279 267 299 307 302 270 257 259 294 274 293 273 279 285 300 302 303 306 304 307 310 308 305 303 300 299 298 297 296 295 295 298
229 227 235 237 245 250 254 262 253 253 275 283 258 269 306 273 270 282 239 237 267 286 251 277 290 298 303 305 306 306 306 313 314 311 310 308 307 308 304 302 301 300 298 301
228 227 233 238 246 250 257 248 264 268 269 279 253 282 300 263 272 270 286 231 289 282 276 289 294 291 297 299 303 309 310 310 309 310 311 311 309 312 312 309 306 299 306 302
226 228 231 237 244 250 252 259 266 266 275 274 264 260 261 273 268 231 236 242 284 281 285 292 294 296 297 304 306 308 308 308 310 310 309 308 308 308 310 315 314 308 307 305
226 230 232 236 241 246 251 256 262 267 274 272 248 281 272 263 277 267 273 265 264 277 286 289 291 294 299 301 305 305 307 306 305 305 305 304 307 308 314 316 312 306 316 319
228 229 230 236 240 244 251 253 258 261 276 273 247 248 262 257 275 277 249 268 276 279 281 287 289 293 298 298 301 303 302 302 303 304 305 306 309 311 316 310 310 315 314 321
228 236 233 236 238 244 248 251 257 261 273 267 247 260 257 252 261 243 249 266 272 279 282 285 290 294 295 297 299 299 299 301 303 304 306 309 312 317 311 309 313 318 325 326
233 234 236 239 241 245 249 251 253 256 266 257 252 252 251 259 271 258 259 275 276 278 283 287 289 291 293 294 297 297 300 300 303 306 309 313 313 307 310 316 324 318 325 325
234 236 238 240 244 249 250 252 254 253 260 253 247 243 258 250 260 264 268 273 278 281 282 284 286 288 291 293 295 297 299 301 304 308 311 310 315 319 319 318 325 325 323 324
236 238 238 241 244 246 249 250 252 255 259 252 245 242 258 256 261 266 270 273 275 277 278 280 282 285 289 292 294 296 299 303 307 309 314 317 311 321 324 324 323 323 323 325
233 235 240 242 245 248 249 250 252 254 255 254 253 254 250 259 257 257 264 267 271 275 278 281 282 285 288 290 294 298 303 305 310 313 314 315 321 322 323 321 321 322 317 324
230 254 235 237 241 245 249 252 252 250 252 254 254 254 255 255 257 258 264 269 273 275 277 280 284 286 290 297 299 302 305 308 309 310 316 320 320 321 321 319 321 322 323 326
233 233 236 237 240 241 243 248 251 253 256 254 252 256 256 257 260 262 265 269 272 276 280 284 287 291 295 296 300 304 307 309 312 314 317 318 318 318 318 319 320 323 325 328